Theta_e
314 313 313 313 313 313 313 313 313 312 312 310 311 314 312 309 310 313 316 317 318 318 319 320 320 319 321 324 327 327 327 325 325 324 324 324 318 319 322 320 326 329 326 329 332 330 323 318 318 317 317 319 322 325 326 324 323 324 328 329 328 329 329 328 329 327 324 325 321 316 316 322 323 318 318 319 319 321 321 322 323 325 327 328 329 328 329 329
314 314 313 312 313 313 313 313 313 312 312 310 310 312 313 310 309 310 313 316 317 317 319 319 320 320 320 323 326 327 327 326 325 324 324 323 319 318 319 319 325 329 329 332 333 331 326 321 318 317 318 319 322 324 326 326 324 325 329 329 329 330 329 327 327 324 323 324 320 315 315 319 322 319 319 320 322 322 322 323 323 324 326 329 329 328 329 330
315 314 313 313 312 313 313 313 314 312 310 310 311 311 314 313 309 309 311 314 316 317 318 319 320 320 320 322 325 327 327 325 325 324 324 323 321 318 317 319 324 328 330 333 333 330 323 320 318 317 319 319 323 324 325 326 324 326 328 329 331 330 328 325 325 324 321 321 322 316 313 316 318 318 320 321 323 322 322 323 323 323 324 328 330 329 330 331
315 314 314 313 313 312 313 313 314 313 310 308 311 311 312 312 308 307 310 312 315 317 317 319 319 320 320 321 325 328 325 325 326 325 325 324 322 320 316 320 326 328 329 331 333 330 319 316 319 318 318 319 323 324 324 326 325 326 327 329 331 327 328 327 324 323 318 318 321 317 314 316 316 317 319 321 322 323 323 323 323 324 322 328 331 330 331 331
315 315 314 314 313 312 312 313 313 313 311 307 309 308 307 308 306 305 308 311 314 316 317 318 319 320 321 321 325 327 324 327 327 323 323 323 323 321 317 318 327 330 329 330 331 326 319 317 319 318 319 320 322 323 323 325 325 327 327 328 329 326 328 327 324 322 317 316 318 317 317 318 316 317 319 321 322 322 323 323 323 323 323 328 331 330 331 332
315 314 314 313 313 312 312 313 312 313 312 309 306 307 307 307 306 305 307 310 313 315 316 317 318 320 321 321 325 326 324 327 324 321 322 322 322 323 319 316 324 331 329 328 325 320 318 318 319 321 321 321 322 323 324 324 323 327 328 326 327 327 328 325 323 320 315 317 320 317 317 316 316 318 318 319 321 321 320 318 319 320 323 329 332 331 330 331
314 314 314 313 313 312 313 313 312 312 313 311 306 307 309 307 305 306 307 310 312 314 315 316 318 319 320 321 324 325 324 325 321 321 322 320 321 323 321 317 323 331 328 326 325 322 319 318 322 323 323 323 322 321 324 324 323 326 327 326 325 325 327 322 319 316 314 319 319 314 315 316 318 319 316 318 320 320 318 316 317 319 323 329 331 330 331 332
314 314 314 314 313 312 312 313 313 312 313 312 308 307 309 305 304 306 307 309 311 313 314 316 318 318 320 321 324 325 324 325 321 321 321 320 322 323 323 321 324 329 329 329 329 326 320 319 322 322 324 326 322 320 323 324 324 325 325 325 324 324 326 323 319 316 317 320 316 314 321 323 319 316 315 318 320 320 319 319 321 323 326 328 329 330 331 333
313 314 314 314 313 312 312 312 313 313 312 312 310 308 308 304 303 305 307 309 310 313 314 315 317 317 319 321 322 325 326 325 322 321 321 321 322 323 324 325 326 328 330 330 331 329 322 321 322 321 325 325 321 321 322 324 325 324 324 325 323 324 325 323 323 321 321 322 318 321 328 325 316 315 319 322 322 320 317 318 323 325 325 327 328 330 332 333
312 314 314 313 313 312 312 312 312 312 312 312 310 308 307 304 302 304 307 308 310 312 313 314 316 317 319 321 321 325 326 324 323 321 322 322 323 325 325 326 326 327 330 330 330 329 323 323 322 320 322 322 321 322 323 323 324 323 323 324 323 325 324 322 324 322 320 321 320 323 329 324 315 317 326 325 320 317 315 317 322 323 323 326 327 329 333 333
310 312 314 313 313 313 312 312 312 312 312 311 309 308 308 306 303 304 306 308 310 312 313 314 316 318 319 320 321 324 324 323 323 323 323 323 323 325 325 325 325 326 328 329 331 328 324 323 320 320 322 322 321 322 323 322 322 322 323 324 323 324 324 322 324 323 321 321 320 321 326 324 317 318 325 325 319 316 317 318 320 322 322 324 327 328 332 333
310 311 314 314 313 313 312 312 312 312 312 311 308 308 308 307 304 305 306 309 311 312 313 314 316 319 319 319 320 322 322 322 323 323 324 324 323 324 323 323 325 326 327 328 330 329 325 320 318 321 323 322 322 321 323 321 321 322 322 325 324 323 324 324 324 322 322 323 319 320 325 325 322 320 322 323 321 317 318 319 319 322 322 323 326 327 330 332
310 311 313 314 313 313 313 312 312 312 312 311 308 307 308 307 305 305 306 309 311 312 313 315 317 318 318 318 319 320 321 322 322 323 324 324 323 324 323 323 325 326 326 327 328 328 324 317 318 322 321 321 323 322 323 321 321 322 322 324 325 325 325 324 324 321 322 322 318 322 327 329 328 324 323 322 319 317 318 320 320 321 322 323 325 326 327 330
309 310 312 314 314 313 313 312 313 312 312 311 308 307 307 306 305 305 307 309 311 312 314 316 317 318 318 319 319 319 319 321 321 322 324 325 323 325 325 324 325 325 325 326 326 327 322 316 318 321 321 322 322 322 322 321 321 322 323 324 326 329 328 325 323 321 324 320 317 324 327 329 330 326 324 321 318 318 321 323 322 321 322 323 325 326 326 328
309 310 311 313 314 313 313 312 313 313 312 312 309 307 307 307 305 305 307 309 312 313 314 316 317 317 318 318 318 319 319 320 321 321 323 325 324 324 325 325 325 324 324 325 325 327 323 317 317 321 322 322 322 324 325 324 323 323 326 327 327 329 329 326 323 322 326 320 316 324 328 328 330 328 325 322 318 318 321 324 324 322 322 322 323 324 325 326
309 310 311 312 313 313 313 312 312 312 312 312 310 307 308 308 306 306 308 310 312 314 314 316 316 316 317 318 317 318 319 321 322 320 322 324 324 324 324 324 324 323 324 324 324 325 322 318 318 322 324 323 323 325 327 328 327 325 327 329 329 329 330 329 324 321 325 323 318 323 329 329 328 327 324 321 319 319 321 324 324 323 322 321 321 322 323 324
309 310 310 311 313 313 313 312 312 312 312 312 311 309 309 309 307 307 309 311 313 314 315 315 315 316 317 317 317 318 320 321 321 321 323 324 324 324 324 323 323 323 324 322 322 323 322 320 320 322 323 324 324 325 328 329 329 328 328 329 329 329 328 329 326 322 322 325 323 322 326 329 329 326 324 321 319 319 321 323 323 323 322 321 321 320 320 320
309 310 311 311 313 313 313 312 312 312 312 311 311 310 309 309 309 310 312 313 313 313 314 314 315 316 317 316 317 318 320 321 320 321 323 324 324 324 323 323 323 323 323 322 322 323 322 321 321 322 324 324 325 326 327 328 327 327 329 330 329 328 328 328 328 325 322 323 325 325 325 326 327 326 326 324 320 320 321 322 323 323 322 322 321 320 319 319
308 309 311 312 313 314 313 312 312 312 312 311 311 310 310 310 311 311 312 312 312 312 313 313 314 316 316 315 317 319 320 320 320 322 323 323 323 323 323 322 323 323 323 323 323 323 322 323 325 326 326 324 325 326 325 325 324 324 327 329 329 328 328 328 327 325 324 325 326 326 326 326 326 325 325 324 322 321 322 322 323 322 322 321 321 321 320 320
308 308 310 311 312 313 313 312 312 312 312 311 311 310 309 310 310 310 311 311 311 312 313 313 314 316 316 315 317 319 319 320 321 322 322 323 322 322 322 322 323 325 325 325 324 322 322 326 328 328 326 324 324 325 324 324 323 322 324 327 327 328 327 327 327 325 323 326 327 327 327 327 326 326 325 325 324 323 323 323 322 322 323 322 322 322 322 321
308 308 310 311 312 313 313 312 312 312 311 310 310 309 308 309 309 309 310 310 311 312 313 313 313 315 314 314 318 318 319 321 321 321 322 322 322 323 323 323 325 328 326 324 324 322 323 327 328 326 325 323 323 324 324 325 324 322 322 324 325 326 325 325 327 325 323 326 326 325 326 326 325 325 324 324 324 324 323 323 323 323 323 324 323 324 324 324
308 308 310 311 311 312 312 312 312 312 310 309 310 309 308 308 308 307 308 309 310 311 312 312 313 314 312 314 316 316 319 321 320 321 321 322 322 323 324 324 327 329 327 325 325 325 325 325 324 324 324 323 323 324 324 325 326 325 323 324 325 324 325 324 325 325 324 325 325 324 324 324 323 323 324 323 323 324 324 324 324 324 324 324 324 324 325 325
308 308 309 311 311 312 312 312 312 311 310 309 309 309 308 308 307 306 307 308 309 310 311 311 312 314 313 315 315 314 318 321 320 321 321 322 323 323 324 325 327 328 327 327 326 326 326 323 321 322 323 323 323 323 324 325 326 326 327 327 325 325 326 324 323 325 324 324 325 325 326 325 324 324 324 324 324 324 325 325 325 325 325 325 326 326 325 325
309 308 308 310 312 312 312 312 311 310 309 309 309 309 308 307 307 307 306 308 309 310 311 311 312 313 313 315 314 314 317 319 319 321 320 321 323 322 323 325 327 328 328 326 325 325 324 321 320 322 322 323 323 323 325 326 326 326 328 327 327 327 326 323 324 326 325 325 325 326 329 329 327 328 327 326 326 326 326 326 325 325 326 326 326 327 326 326
308 308 308 310 311 312 312 312 310 309 308 309 309 308 307 306 307 308 307 308 308 309 310 311 311 312 313 314 314 314 315 316 316 320 321 321 322 323 323 324 326 328 328 326 326 326 324 321 321 322 323 323 323 323 324 325 326 326 327 327 326 327 327 325 327 328 328 328 326 328 332 329 325 328 329 328 327 327 327 326 327 326 326 326 326 326 326 326
307 308 309 310 311 312 312 311 309 308 309 309 309 308 307 307 308 308 308 307 306 308 310 311 310 311 312 313 314 314 315 316 316 317 320 321 321 322 323 323 324 325 326 326 327 328 325 322 321 322 323 324 323 323 323 323 325 325 325 326 326 326 327 329 330 329 329 330 328 328 331 330 325 326 328 328 328 328 329 328 327 327 326 326 326 326 326 325
307 308 309 309 311 311 311 310 309 308 309 309 309 308 307 307 308 308 308 306 306 309 311 310 308 310 312 314 314 313 315 318 316 317 319 321 320 321 323 324 324 324 325 326 328 329 326 323 323 323 323 324 324 323 322 322 323 324 324 325 326 326 327 329 331 331 329 330 330 328 331 333 329 326 325 326 327 328 329 329 328 328 327 327 327 326 326 326
307 307 308 308 310 311 310 309 308 308 309 308 308 308 307 308 307 306 306 305 306 309 311 311 309 310 312 314 314 313 315 317 317 318 319 319 319 320 323 324 323 323 324 326 330 329 325 325 325 324 324 324 323 322 322 322 323 325 325 324 324 325 327 328 331 332 330 330 330 327 330 334 331 326 326 326 327 327 327 327 328 328 328 327 327 327 326 327
308 307 307 308 309 311 310 309 308 309 309 308 308 307 307 307 306 305 304 304 307 306 310 312 310 311 313 314 314 314 315 315 316 318 317 316 316 318 321 323 322 324 324 326 329 327 324 323 324 324 325 324 322 321 322 323 323 324 325 323 323 324 325 328 331 331 330 330 329 325 327 331 329 323 324 326 327 327 326 326 327 327 327 327 327 327 327 326
308 307 306 308 309 310 309 308 308 308 308 307 308 307 307 306 306 306 303 305 308 307 309 312 311 312 314 315 315 314 314 315 316 317 317 317 316 315 318 320 322 324 324 324 326 326 323 320 322 323 324 323 322 322 323 323 323 325 326 326 325 326 326 329 330 329 329 330 328 324 324 328 328 324 322 325 326 326 326 326 326 326 326 327 327 327 326 326
307 307 307 308 310 309 308 308 308 308 307 307 307 306 307 306 305 305 305 309 311 310 311 312 311 313 314 315 316 315 315 316 317 318 319 319 318 317 319 320 321 324 323 323 323 324 323 322 322 322 321 321 321 322 323 323 324 325 327 328 328 329 329 330 331 330 329 329 326 323 323 327 329 326 323 324 324 323 325 325 325 326 326 326 326 326 326 325
307 306 306 308 309 309 307 308 308 307 306 306 306 306 307 307 305 304 306 309 309 309 312 312 311 314 314 314 316 315 314 315 316 319 319 319 319 320 320 321 323 324 324 323 323 324 324 324 323 321 320 320 321 324 325 325 325 325 327 328 327 328 331 332 332 332 330 327 323 323 324 326 327 324 322 323 323 323 324 324 325 325 325 326 326 326 324 324
307 305 305 308 309 307 306 307 307 306 307 306 306 306 306 307 306 305 305 306 306 308 311 311 311 313 313 314 314 314 314 315 316 318 318 318 319 319 320 320 321 323 323 323 324 324 325 325 324 323 321 320 321 324 325 326 326 325 327 327 324 325 329 328 328 331 330 326 323 321 322 324 323 321 321 322 322 323 323 324 325 325 325 325 324 324 323 323
307 306 307 308 308 307 306 307 307 306 307 305 305 306 306 306 306 305 306 305 306 309 311 311 312 313 313 313 313 314 314 315 316 317 317 318 318 318 319 320 320 320 321 321 323 324 325 326 326 324 324 322 320 322 323 324 325 325 325 325 323 323 326 325 324 327 328 326 324 322 322 322 320 319 321 320 320 322 322 323 323 322 323 323 323 323 322 321
307 307 308 308 307 306 306 306 307 306 306 305 305 306 305 305 305 305 305 307 308 311 312 312 312 313 313 313 313 314 314 315 316 316 317 317 317 317 317 318 320 320 320 321 322 322 324 326 325 324 323 321 320 321 320 322 325 325 323 326 325 321 321 322 322 323 324 324 324 324 323 321 318 319 320 319 319 319 320 321 321 321 322 323 324 324 324 323
307 308 309 308 307 306 305 306 306 306 306 306 306 306 305 304 305 305 305 308 309 311 313 313 313 314 314 313 313 314 314 315 315 316 317 316 316 316 316 317 319 318 319 321 321 322 323 326 325 323 322 321 320 321 320 322 325 325 326 327 326 321 319 320 320 320 321 324 324 324 324 322 320 320 320 319 319 319 319 319 319 321 323 323 324 324 324 324
307 308 308 307 306 306 305 306 306 306 306 306 306 306 305 304 306 305 305 308 310 312 314 314 314 314 314 314 313 314 314 314 315 316 317 316 316 316 316 316 317 318 318 318 319 320 322 325 325 323 323 322 319 320 321 320 322 325 326 325 323 323 323 319 319 320 321 322 322 322 323 321 320 321 318 317 319 318 319 319 318 320 321 322 324 324 323 323
307 308 307 307 306 305 305 306 306 306 306 305 305 306 304 304 306 307 307 309 312 313 313 314 314 314 314 314 313 314 314 314 315 315 316 315 316 315 315 316 317 317 317 317 318 318 319 323 325 323 323 323 321 323 324 323 323 325 325 323 323 325 326 322 320 321 322 322 321 318 319 318 320 319 317 318 319 318 318 319 319 319 319 321 324 326 326 324
307 307 307 306 305 305 305 306 306 306 306 305 305 305 304 303 306 309 309 308 311 312 313 314 314 314 313 313 313 314 314 314 315 315 315 315 315 315 315 315 316 317 317 317 318 317 317 320 323 323 323 323 324 325 326 326 325 325 325 325 325 325 326 325 321 320 321 322 320 319 318 317 318 317 316 317 318 317 318 318 318 318 319 320 323 326 329 327
307 306 306 305 305 305 305 305 306 306 305 304 305 305 305 304 305 308 309 309 310 310 310 313 313 313 314 313 313 315 314 313 315 315 315 315 315 315 316 315 316 317 317 317 318 317 316 317 321 323 322 324 325 325 326 327 326 326 327 327 326 324 326 327 324 320 321 321 321 321 320 317 315 317 317 316 316 317 317 318 320 320 319 319 321 324 326 325
305 305 305 305 305 304 304 304 305 305 305 304 304 304 304 304 305 307 308 309 309 308 308 311 313 313 314 314 314 314 314 314 314 315 315 315 315 315 316 314 315 316 317 318 318 317 317 317 318 321 322 324 325 322 319 320 321 323 326 327 326 325 325 326 326 324 322 321 321 321 321 319 315 316 316 315 316 316 316 318 320 320 319 318 318 319 319 319
304 304 304 304 305 303 303 304 304 305 305 305 305 305 306 305 305 306 307 308 308 308 308 311 312 312 313 313 313 314 314 314 314 315 315 314 314 315 315 314 315 315 316 317 317 316 317 316 317 319 321 322 321 315 312 313 316 319 322 324 325 324 324 325 326 326 323 322 321 320 322 321 315 313 314 315 315 315 314 315 316 316 315 314 315 315 315 315
303 303 303 304 304 302 303 305 305 305 305 305 306 306 306 305 306 307 308 308 308 307 308 310 310 311 312 312 312 313 314 314 314 314 314 314 314 314 314 314 314 315 315 316 317 316 316 316 317 318 318 319 318 314 312 312 315 318 320 322 325 325 324 324 324 324 324 324 323 322 323 322 316 312 310 311 312 312 311 312 313 314 313 313 313 313 312 312
301 301 302 304 304 303 305 306 306 305 305 306 306 305 304 305 307 307 307 308 308 306 307 309 309 310 311 311 311 312 313 314 314 313 314 314 313 312 313 313 313 314 314 315 316 315 315 317 317 317 318 318 318 318 316 314 314 316 318 320 323 325 324 324 325 323 323 325 324 324 325 323 317 313 312 312 313 313 312 311 312 313 313 313 312 312 311 311
301 301 300 301 302 303 304 304 305 306 305 306 306 305 305 305 305 306 307 308 308 308 308 308 308 309 310 311 311 311 312 312 313 312 313 314 313 310 311 314 313 313 314 315 315 314 315 317 316 316 317 317 318 320 320 319 317 315 315 317 320 322 324 326 325 323 324 327 326 324 325 322 317 315 315 315 315 316 315 314 313 313 313 313 313 312 311 311
303 302 301 301 301 302 302 303 304 305 305 306 306 306 306 305 304 305 307 307 306 308 309 308 308 309 309 310 311 311 311 312 312 312 312 313 312 309 309 312 314 314 314 315 315 313 313 315 316 316 316 315 317 321 321 320 319 317 316 317 318 320 321 323 325 325 325 326 325 324 324 323 319 317 318 317 317 316 316 315 315 314 314 314 314 312 311 311
304 303 303 302 302 302 303 303 304 305 305 305 306 305 306 306 304 304 305 305 305 307 308 307 308 309 308 309 310 311 312 312 311 313 313 313 311 308 307 309 312 314 314 314 315 313 311 313 316 316 316 316 316 319 319 320 321 320 318 317 318 319 319 320 322 323 324 326 327 325 324 324 322 319 318 317 316 315 314 314 314 314 314 314 313 312 312 312
302 303 303 304 304 304 304 304 304 305 305 305 305 305 306 305 305 306 305 303 303 306 308 307 307 308 308 309 310 310 311 312 311 312 313 312 310 309 309 308 309 312 312 312 314 313 312 313 315 316 316 316 315 316 318 319 320 320 319 318 317 318 318 318 319 319 320 322 324 321 320 322 322 318 316 315 314 313 313 313 313 314 313 313 313 313 313 313
301 302 302 303 304 304 304 305 305 305 306 305 304 305 306 306 306 306 304 303 303 305 307 308 308 308 308 309 309 309 310 311 311 311 311 311 310 311 311 310 309 309 310 311 312 312 312 313 314 314 315 315 315 316 317 318 318 319 319 318 318 317 316 317 318 317 317 318 317 316 316 317 317 315 313 313 312 313 312 312 313 313 313 313 314 313 313 313
301 303 302 303 303 304 304 305 305 305 305 305 305 305 305 306 305 305 304 304 306 306 305 307 308 307 308 309 309 309 309 310 311 311 310 310 310 310 311 312 311 310 310 312 312 311 312 314 314 314 314 314 315 315 316 316 316 318 317 316 316 317 316 316 316 316 316 316 315 315 315 315 314 313 312 312 312 313 313 313 313 313 313 313 312 312 312 312
298 300 302 304 303 304 305 304 304 305 305 305 305 305 305 305 305 305 304 304 306 306 305 307 308 308 308 308 309 309 309 310 311 311 310 310 311 310 311 312 311 310 311 312 312 311 312 313 312 313 314 315 315 315 315 314 314 315 315 315 315 316 316 316 315 315 315 316 317 316 315 316 317 314 312 313 313 313 313 312 313 313 313 312 312 311 311 312
297 299 302 305 304 303 304 304 304 305 305 305 305 304 305 305 304 305 305 303 303 304 304 306 308 307 307 308 309 309 310 310 309 310 310 310 309 309 311 312 312 311 311 311 312 311 311 312 312 312 315 316 314 314 313 312 313 314 314 314 314 314 315 315 315 315 315 315 317 316 315 317 318 315 313 313 314 313 313 313 313 313 313 312 311 311 311 311
Wind_Speed
33 33 32 30 28 27 27 24 23 22 22 22 19 18 18 18 18 17 16 15 15 15 15 14 12 12 12 13 13 13 11 10 10 12 16 17 22 17 6 11 16 14 12 8 4 5 5 4 4 3 3 2 1 0 1 1 0 2 3 4 4 4 3 3 5 3 1 2 4 4 5 8 4 4 3 2 5 3 2 4 3 3 4 1 2 3 3 11
33 33 33 32 29 27 27 26 25 24 23 22 21 19 18 18 18 18 17 15 15 15 15 15 13 12 11 12 12 13 12 11 12 16 23 22 21 20 12 12 18 16 11 9 6 6 7 6 6 5 4 3 1 0 2 0 1 3 2 4 5 4 2 1 2 2 0 2 4 3 4 6 3 4 4 4 5 4 5 6 5 6 7 5 3 2 6 13
34 34 33 33 32 30 28 27 26 25 24 22 22 20 18 18 18 19 17 16 16 15 15 15 14 13 11 11 11 13 12 10 11 16 26 27 23 21 18 15 16 18 14 10 7 6 7 8 8 6 4 3 1 0 3 2 2 2 2 6 5 3 2 1 3 2 1 2 2 2 3 4 3 2 4 5 4 4 8 8 6 9 11 9 7 7 9 13
35 35 34 33 33 32 29 29 27 26 25 24 22 21 20 19 19 19 18 17 16 15 15 14 14 13 12 11 11 12 9 7 7 14 27 29 28 24 21 18 14 16 16 12 9 6 7 10 8 4 4 4 2 1 4 3 1 2 3 6 1 1 3 2 3 3 2 1 1 3 3 4 2 1 4 5 5 7 10 9 9 11 10 9 10 9 11 13
34 34 34 34 33 33 31 30 29 26 25 25 23 21 21 20 19 19 18 17 16 16 15 15 14 13 13 10 11 13 7 4 3 10 23 25 29 28 24 22 17 13 13 15 11 9 9 10 8 4 4 5 4 4 5 3 1 3 4 3 2 2 4 1 2 2 2 0 0 3 3 2 3 3 5 7 8 6 2 3 7 10 7 6 11 11 11 13
34 34 36 35 33 33 33 30 29 28 26 25 24 22 20 20 20 19 19 18 16 16 15 15 14 13 13 10 12 16 11 4 2 2 9 15 24 28 26 24 21 16 13 14 13 11 10 9 9 7 6 6 8 8 5 4 2 5 4 2 2 3 2 2 2 2 2 2 2 2 1 2 3 4 3 7 12 4 5 3 3 6 3 5 11 12 12 13
35 35 35 34 33 34 33 30 29 29 26 25 25 23 21 20 20 19 18 18 16 16 15 15 14 14 13 10 13 13 11 8 2 4 2 5 17 23 27 26 24 21 16 15 15 12 10 11 11 8 8 7 8 9 5 5 4 7 6 4 4 3 3 1 3 3 2 2 1 1 0 2 4 3 1 6 14 9 1 3 4 4 0 6 10 11 12 14
35 36 36 34 34 35 33 31 29 28 28 26 25 23 22 21 20 19 18 18 16 16 15 15 15 14 13 11 10 8 8 10 5 2 4 3 11 20 24 24 26 24 17 16 17 14 12 13 13 8 9 8 7 9 6 6 6 9 9 4 4 3 4 1 2 3 2 1 1 1 4 4 3 1 2 8 13 11 4 2 2 1 2 6 9 10 11 12
34 36 36 36 35 36 35 33 30 29 28 27 26 24 23 22 20 19 18 17 16 16 15 15 15 14 14 10 8 8 8 12 9 3 4 7 12 20 22 20 24 24 19 17 17 16 12 13 13 7 7 7 7 9 8 8 6 9 10 4 5 5 4 2 3 3 1 2 1 4 9 4 3 1 5 11 12 6 2 3 2 2 4 6 8 9 10 11
34 35 36 36 36 37 36 34 31 30 28 27 27 25 23 22 20 19 18 17 16 17 15 16 15 13 14 10 9 9 4 10 15 7 1 4 13 21 23 21 22 22 20 17 16 16 11 11 12 5 2 5 7 6 8 9 3 5 8 5 5 5 3 2 3 3 1 3 4 6 11 4 4 2 7 7 4 1 2 5 4 4 8 8 7 8 10 11
35 36 36 37 37 36 36 35 32 30 29 28 27 25 24 21 19 19 18 17 16 16 16 16 15 13 13 10 10 9 2 6 16 14 6 4 12 18 20 23 25 22 20 17 15 16 10 7 10 5 1 5 7 4 5 6 1 3 5 4 6 4 3 4 4 4 2 3 5 4 10 5 4 4 8 6 2 1 4 6 5 7 9 9 8 7 8 10
34 36 37 39 39 37 37 37 33 31 29 27 27 26 24 21 19 18 18 17 16 16 16 15 15 13 11 10 12 11 6 2 6 13 11 7 10 11 11 20 26 22 19 17 14 16 12 7 12 10 5 7 8 4 4 5 3 4 5 5 7 5 7 9 7 5 5 4 5 2 8 10 9 9 9 8 5 2 5 7 6 8 9 8 8 6 7 9
35 35 37 39 39 38 38 38 35 32 29 28 27 25 24 22 19 18 18 17 16 16 16 15 14 13 10 8 9 12 17 12 4 7 11 11 10 9 10 17 23 20 17 15 12 15 14 9 12 10 4 6 7 4 3 6 3 5 5 6 7 7 9 11 9 5 7 5 5 4 8 11 10 11 10 7 6 5 7 9 7 7 7 8 7 6 7 8
36 35 36 38 38 38 39 38 35 31 30 28 27 26 24 22 19 18 17 16 16 15 15 15 13 11 9 7 4 8 18 19 14 9 8 13 11 11 12 14 18 19 16 13 11 14 13 8 7 4 1 2 4 5 4 5 3 6 5 4 7 9 7 9 9 9 9 4 6 7 9 11 9 8 8 7 7 8 10 11 10 8 7 7 7 7 8 8
37 35 36 37 36 37 39 39 36 32 30 28 27 26 23 22 19 17 16 16 15 15 14 13 11 8 6 7 5 8 12 11 16 18 11 14 14 10 12 15 16 17 16 11 11 15 12 7 5 4 2 0 5 7 5 4 5 6 5 6 8 9 5 5 7 11 12 4 7 10 8 9 11 9 5 6 8 9 12 13 11 11 10 9 8 8 8 8
37 36 36 37 37 38 39 39 38 34 31 28 26 24 22 21 19 16 16 15 13 13 13 9 10 9 5 5 5 9 11 8 14 21 16 15 16 12 14 17 15 14 13 9 10 11 9 6 3 2 3 4 8 9 6 5 6 7 8 9 8 9 8 5 5 9 13 6 8 13 9 6 6 6 2 2 7 10 12 15 14 13 12 11 9 8 8 7
36 37 36 37 38 39 40 40 38 35 32 29 26 23 21 18 16 15 13 14 14 13 11 7 7 9 6 4 4 7 11 10 13 19 19 17 16 16 17 14 12 14 12 8 7 8 6 5 2 2 3 6 10 8 8 11 10 8 9 9 7 8 9 6 3 5 10 7 8 14 13 12 9 6 3 2 5 8 11 14 14 13 11 11 10 8 8 8
37 36 36 38 40 40 40 41 39 36 33 30 25 22 20 17 15 15 12 12 11 7 8 7 6 7 8 9 8 5 9 14 16 18 20 18 16 20 20 12 13 16 12 8 7 8 7 5 4 6 7 8 11 11 12 11 10 11 11 10 8 6 8 8 3 5 10 8 9 13 13 16 14 13 13 6 5 7 11 13 13 12 12 11 10 9 10 10
38 36 36 39 41 41 40 41 40 37 35 31 26 23 19 15 12 11 11 11 9 6 5 8 9 5 3 8 9 6 8 16 17 15 18 18 15 18 18 12 14 15 11 8 9 12 8 5 5 9 11 14 16 17 15 8 8 14 12 10 10 8 8 9 6 5 8 9 10 14 14 14 14 14 16 11 7 9 13 13 12 11 11 10 10 10 10 10
39 37 37 38 42 41 39 42 41 38 36 31 28 23 14 11 8 6 9 10 12 8 1 5 12 6 4 1 8 11 10 12 12 11 16 20 17 15 10 8 11 10 9 9 10 12 10 8 9 11 14 18 19 20 18 10 7 12 11 10 11 9 8 10 8 4 4 8 11 13 15 16 16 15 17 16 13 14 14 15 13 12 12 12 12 13 12 11
39 38 37 39 43 42 40 43 41 38 38 35 32 18 8 13 8 6 10 7 13 14 6 1 5 7 1 2 6 11 8 6 8 10 18 21 18 13 7 8 8 7 11 11 8 8 9 12 15 14 15 17 18 19 19 15 11 11 11 10 10 10 9 9 9 5 4 7 11 13 15 17 17 16 17 17 18 18 17 16 15 16 16 13 14 16 15 11
41 39 39 40 42 43 42 44 42 40 38 35 30 13 9 18 7 4 12 5 9 15 13 6 4 5 1 1 4 4 3 7 9 11 18 20 15 11 7 9 10 8 12 12 8 7 10 14 19 18 15 16 17 18 19 18 14 12 9 8 8 8 8 6 7 8 6 5 10 13 15 16 17 18 19 19 19 19 18 18 17 17 17 16 16 15 14 13
40 40 39 40 43 44 43 43 43 41 37 34 31 15 14 22 9 9 15 3 3 9 11 12 11 9 4 2 4 3 3 10 10 11 19 18 12 11 8 9 12 11 12 14 11 10 11 14 17 16 16 20 20 19 19 17 13 12 10 9 9 8 7 6 7 9 8 7 7 10 12 14 15 17 19 19 19 19 18 18 18 17 17 18 18 16 15 15
40 40 39 40 44 44 42 43 42 40 38 35 31 19 17 23 15 15 14 1 2 6 8 13 10 9 6 3 5 4 4 6 6 11 19 17 10 9 8 9 13 12 10 15 15 12 11 11 13 16 18 21 20 20 20 15 13 14 14 12 10 10 10 8 5 6 6 8 7 8 11 12 13 16 17 15 17 20 19 18 18 18 17 17 17 17 17 16
40 40 40 41 43 44 46 42 37 39 36 29 24 20 22 25 19 16 10 1 3 3 5 9 6 8 8 4 5 5 2 3 5 9 19 20 13 9 6 5 9 12 13 17 16 12 11 8 16 20 18 19 20 19 19 16 13 14 17 17 14 11 11 10 6 5 4 8 7 7 9 8 8 15 16 12 14 18 17 18 20 18 16 16 16 16 16 17
41 39 40 43 44 49 43 26 29 40 30 21 25 26 25 26 22 16 7 0 5 4 6 9 6 10 12 7 6 4 3 5 3 6 16 20 13 6 6 4 3 9 13 13 9 6 8 11 16 19 17 20 21 17 18 19 14 13 14 16 17 15 13 11 8 6 7 7 4 9 10 9 7 12 14 12 13 16 15 17 19 16 15 15 15 15 15 16
42 40 41 43 46 50 33 14 29 37 20 19 30 30 26 29 23 11 3 1 5 4 8 8 6 10 13 12 13 8 5 4 4 5 13 17 11 2 6 9 4 5 7 6 5 4 9 14 15 16 18 19 19 16 18 20 15 9 7 13 18 18 15 12 9 8 7 6 3 8 9 11 12 12 12 14 16 17 16 16 16 14 15 16 16 16 15 16
43 42 43 44 49 53 34 24 36 27 16 27 35 31 28 29 21 7 3 4 4 4 6 6 6 7 10 14 17 9 2 4 6 8 10 12 9 2 7 13 9 8 8 7 9 6 10 17 17 19 19 14 15 16 17 19 15 6 7 10 14 16 16 12 9 7 4 5 9 10 9 9 13 9 8 13 18 19 18 18 17 15 15 16 16 16 16 16
42 43 43 45 52 52 37 37 39 23 23 36 36 33 31 26 16 5 3 5 2 2 3 6 7 7 10 13 15 12 3 2 3 4 8 5 4 1 5 10 9 9 9 9 10 3 3 10 14 17 15 11 13 12 16 20 14 5 8 8 10 12 14 11 8 7 5 6 13 14 11 10 12 7 8 12 15 16 15 15 16 15 15 16 16 17 17 15
41 43 44 47 49 43 32 32 34 26 32 40 38 37 32 19 10 7 7 6 2 2 4 7 7 9 15 14 12 16 12 4 1 4 7 5 3 2 2 2 3 5 6 8 12 6 1 0 4 10 9 7 8 7 13 17 11 8 7 7 8 7 7 7 7 7 7 10 17 19 15 13 11 5 7 9 7 7 8 9 11 13 15 16 16 16 16 13
40 41 44 47 44 40 29 21 28 34 37 42 42 36 23 8 5 8 8 2 3 3 5 7 9 12 19 16 10 16 16 6 4 7 7 6 6 5 3 3 3 4 4 4 7 9 8 3 4 6 6 6 7 6 7 9 9 8 5 7 7 4 3 4 5 7 10 11 14 17 17 17 14 5 2 2 0 2 6 8 9 12 14 14 13 12 12 11
39 40 44 47 43 40 32 26 36 42 43 46 37 21 10 5 6 8 6 3 1 4 7 9 12 14 18 18 12 15 17 9 7 10 9 8 8 7 8 8 6 6 7 6 6 7 9 7 5 5 8 11 11 8 4 5 8 8 5 7 8 5 5 7 7 8 11 9 3 4 11 15 17 11 6 4 1 2 4 6 7 11 12 10 9 8 8 8
39 40 42 47 43 37 36 40 45 46 48 45 25 8 6 6 8 9 7 6 2 3 7 10 14 16 19 18 13 15 16 10 9 10 10 10 9 8 10 10 6 5 4 6 8 6 5 7 7 6 7 12 13 11 7 7 10 11 9 10 11 9 9 11 10 7 9 10 3 4 2 9 13 11 12 16 14 8 7 7 6 6 7 6 6 6 6 7
38 39 41 44 39 34 40 47 49 51 49 33 12 7 9 5 8 11 8 4 1 2 7 11 14 17 17 15 13 14 12 9 11 11 9 8 7 9 10 10 11 6 1 4 7 7 7 6 9 10 7 12 15 14 12 10 10 12 12 11 11 9 8 9 9 8 8 8 4 5 2 6 7 2 3 8 10 8 8 7 3 3 4 5 5 5 6 6
35 38 39 38 33 35 46 50 52 54 41 18 8 10 10 7 9 11 9 4 2 4 8 12 15 15 14 12 13 13 8 7 12 11 8 9 7 9 9 10 14 10 5 6 4 5 9 6 8 14 12 16 18 15 14 11 8 9 9 9 11 9 7 4 2 6 6 5 5 6 4 6 5 3 2 2 1 1 4 3 4 7 9 8 7 6 7 7
33 35 35 30 31 41 52 52 52 51 30 11 10 10 8 8 7 8 8 5 4 8 12 13 13 11 11 9 10 12 6 4 12 11 6 9 10 10 8 7 12 13 10 8 2 3 8 5 8 14 12 17 20 16 15 13 8 7 8 11 11 8 6 3 1 2 4 7 6 6 8 9 8 11 11 12 8 5 5 5 8 10 10 9 8 7 9 10
30 29 22 22 35 48 54 53 51 42 19 8 12 10 7 6 4 6 8 6 6 11 12 9 8 9 10 8 8 13 9 4 11 10 6 8 9 10 10 7 12 17 15 11 4 1 4 3 5 13 13 15 18 16 16 16 12 7 9 11 5 1 2 2 3 1 4 7 5 8 14 12 9 8 4 11 17 14 12 9 6 6 7 8 9 9 11 12
28 23 13 20 41 52 54 54 47 29 10 7 11 8 5 5 3 5 7 7 7 9 9 5 6 8 9 9 10 14 12 8 11 11 7 7 6 10 14 8 10 18 18 14 7 0 2 3 2 11 14 12 12 12 11 15 12 4 5 10 6 1 5 5 5 3 4 6 6 11 17 12 11 9 1 5 11 14 15 11 6 7 8 8 9 10 11 11
24 14 5 22 47 54 54 49 33 15 7 9 11 6 6 7 3 3 6 9 7 7 9 5 4 8 10 10 11 13 14 12 12 11 9 7 5 11 16 10 8 16 17 15 9 0 1 4 4 7 9 7 7 8 8 10 8 1 1 7 4 2 6 7 7 6 6 6 7 10 13 10 10 11 7 5 6 7 11 10 9 12 13 11 11 10 9 9
14 4 2 28 50 52 50 36 17 9 7 9 9 4 6 7 4 2 4 6 5 3 7 7 5 8 11 12 11 11 13 14 12 9 8 8 7 8 13 11 8 12 16 16 10 4 2 4 5 3 4 4 4 5 9 12 10 6 6 9 8 5 2 3 5 6 5 6 6 8 10 8 5 6 9 10 8 10 12 11 11 13 14 13 10 7 6 7
8 1 3 33 52 47 37 19 6 7 6 6 5 3 6 7 5 5 2 3 2 1 1 6 7 7 8 10 9 9 10 11 11 8 5 8 10 7 9 13 10 11 15 14 11 8 6 6 7 6 3 4 3 1 4 5 5 7 8 10 12 10 6 4 6 6 5 6 6 7 10 8 2 1 5 8 8 7 9 10 9 7 4 3 4 5 7 8
6 1 7 37 52 40 23 7 3 7 5 5 5 3 5 7 7 8 4 2 2 2 1 3 6 6 6 6 6 7 9 9 9 9 6 9 13 9 8 12 12 13 13 9 9 7 3 3 8 9 5 3 2 2 3 2 1 3 6 7 9 9 8 8 8 8 7 8 7 7 9 6 1 3 3 2 2 4 3 1 1 3 5 7 7 6 6 6
3 3 13 41 52 35 15 7 7 7 4 4 6 3 3 5 6 7 6 4 3 2 2 2 3 5 5 4 5 7 9 9 9 10 7 9 11 6 6 11 13 14 11 7 8 6 2 2 6 8 6 4 2 1 2 3 3 3 6 6 7 9 10 8 6 5 6 8 7 6 9 6 1 2 4 6 6 7 7 6 6 6 5 5 5 5 5 6
2 2 8 31 45 30 10 7 10 10 7 6 7 5 1 2 5 8 9 7 3 3 4 2 2 2 2 3 6 8 9 7 8 9 6 7 5 1 6 14 15 13 10 8 9 8 4 5 8 9 8 6 6 6 4 2 1 2 4 6 8 10 13 11 4 1 3 10 12 9 9 8 1 4 6 7 6 7 7 5 5 4 4 4 5 5 5 5
4 3 3 10 23 17 4 2 7 10 11 11 11 10 6 3 2 4 9 7 2 3 5 2 2 3 2 3 5 7 9 5 5 7 5 5 3 1 5 14 15 12 9 9 11 9 6 5 8 12 12 10 9 8 6 5 4 3 3 5 9 12 14 12 8 5 5 10 13 11 8 6 4 7 6 5 5 5 4 3 2 2 2 2 3 4 5 5
5 4 2 3 4 4 1 1 3 7 10 12 10 9 11 7 2 1 5 6 1 2 3 2 3 3 3 5 7 8 10 6 2 5 8 6 3 0 2 8 12 11 8 10 12 8 4 6 9 12 13 13 10 4 1 2 5 5 7 8 10 12 10 8 8 8 6 7 10 12 10 8 6 7 6 3 4 4 5 4 3 3 4 4 3 4 5 5
2 3 5 4 2 2 1 0 5 7 9 11 8 7 11 10 6 2 1 2 3 4 2 2 3 6 6 9 8 7 11 8 2 5 10 8 3 1 1 3 7 10 10 10 11 7 2 7 12 13 15 16 13 6 2 2 4 7 9 9 10 10 8 7 6 4 3 7 10 8 7 12 13 7 4 2 5 7 8 8 7 6 6 6 4 5 6 5
1 2 2 1 1 7 6 6 11 10 10 12 6 6 11 11 10 8 2 2 2 4 3 2 5 9 11 12 9 6 9 9 6 7 8 5 4 3 2 1 5 8 9 7 8 6 2 7 11 13 15 17 16 9 5 4 4 6 9 11 11 11 10 10 6 1 1 6 5 2 1 11 12 4 2 6 8 8 11 11 8 5 6 7 7 8 9 8
2 2 1 3 0 6 6 7 13 12 12 13 6 6 13 13 13 9 4 4 4 5 7 8 10 11 11 13 10 7 9 8 7 9 7 5 5 5 4 3 5 7 8 8 7 6 5 7 8 9 13 16 15 10 7 7 6 6 9 11 13 13 14 13 10 6 5 6 4 3 7 12 12 7 8 11 10 9 9 8 6 6 6 7 8 8 10 11
2 2 2 2 2 6 7 7 11 11 10 10 7 6 11 14 15 10 4 6 9 8 8 10 10 11 11 13 13 11 12 12 11 11 10 8 6 6 6 5 4 6 8 9 6 5 7 7 5 6 9 13 13 9 8 8 7 7 8 8 9 10 12 12 11 9 7 6 7 6 8 12 13 10 10 13 9 4 5 8 8 7 6 6 7 7 8 9
2 2 3 4 4 6 8 6 8 9 8 9 8 7 9 13 15 11 5 4 7 9 10 11 10 9 9 12 15 16 15 16 15 14 16 15 10 10 9 6 7 9 7 7 6 5 7 5 3 6 9 11 10 11 10 6 4 8 8 6 8 8 9 10 10 8 8 8 9 8 6 10 13 11 11 13 8 6 8 10 8 8 8 7 7 7 7 7
3 3 3 4 4 3 7 6 6 7 7 8 8 7 8 10 11 11 7 3 2 3 5 11 11 7 7 13 18 17 12 10 7 5 8 9 5 7 7 6 10 12 8 7 5 4 7 5 3 7 9 8 6 8 8 5 4 7 8 10 13 13 12 11 9 10 12 11 10 10 10 12 14 11 12 13 7 8 9 9 8 8 8 7 7 7 6 6
Wind_Direction
232 232 231 231 230 225 221 220 221 222 225 231 237 241 244 243 243 244 244 244 241 240 239 239 238 236 231 228 225 222 224 227 235 230 224 234 231 222 212 188 190 189 184 185 190 180 163 163 159 157 187 189 325 260 145 11 11 228 218 217 223 209 202 192 196 199 324 85 131 162 196 215 190 159 174 162 207 208 184 213 214 220 231 223 56 23 123 152
231 230 230 229 229 227 222 220 219 220 221 225 231 235 239 241 241 242 242 243 242 240 239 237 236 235 233 230 224 219 216 224 239 241 236 240 239 225 211 191 193 199 195 202 209 186 181 170 154 164 190 199 224 289 203 185 232 232 218 223 225 204 186 172 211 200 292 64 105 147 200 221 225 145 167 211 201 183 220 217 207 232 220 184 146 124 147 159
230 228 229 228 228 228 224 220 219 220 222 221 225 230 234 237 238 239 240 241 241 241 237 235 234 232 234 229 223 217 212 228 241 246 245 239 236 227 213 202 197 204 206 205 204 193 183 158 152 166 187 209 170 185 212 181 218 220 219 237 224 194 214 214 219 204 168 23 78 130 161 211 239 111 166 223 225 201 229 225 206 228 224 194 156 152 165 168
231 227 227 227 226 226 224 221 219 219 222 222 221 225 230 234 236 237 239 240 239 240 237 236 233 228 230 228 222 208 200 244 240 242 251 242 233 228 212 201 192 199 207 207 204 197 167 144 148 164 184 200 160 208 211 185 206 176 214 246 214 130 234 194 191 204 172 335 356 118 139 202 195 138 201 214 227 230 235 232 224 235 230 187 157 161 173 175
232 228 225 226 225 224 225 222 220 220 221 222 220 222 228 232 235 235 237 239 238 238 238 236 232 229 226 225 220 191 168 264 229 229 250 242 232 226 211 199 186 182 195 200 190 179 171 148 145 151 190 198 165 201 209 171 166 193 214 264 62 163 226 120 117 173 150 217 221 153 171 168 127 188 217 216 229 241 252 246 241 250 251 168 158 167 174 182
232 228 225 226 224 222 224 222 220 220 220 221 220 220 223 230 234 234 235 237 237 236 237 235 231 230 223 222 220 191 173 230 78 151 239 232 226 220 207 195 186 175 171 179 167 166 172 156 166 172 191 202 189 202 193 147 198 229 213 181 185 213 228 59 95 158 158 203 194 181 190 109 171 216 210 225 239 260 49 36 310 288 287 136 150 165 177 188
233 229 225 225 224 222 223 222 219 219 219 219 219 218 218 226 232 232 234 234 236 236 234 234 230 230 226 222 225 207 195 217 131 84 60 213 215 213 203 191 184 176 165 168 163 172 172 168 186 178 187 201 196 204 177 148 205 240 227 180 183 219 235 71 88 160 176 209 123 82 208 181 212 238 138 227 246 255 53 66 1 328 212 141 154 174 189 194
234 228 223 222 223 222 222 221 220 218 217 218 218 216 216 223 229 230 232 231 234 235 233 233 228 229 227 218 226 234 218 221 221 144 54 87 184 199 196 188 187 179 174 180 173 179 177 179 183 163 194 201 187 193 167 167 202 230 232 182 158 214 230 149 99 168 177 221 62 246 260 246 210 310 259 245 255 256 237 144 42 25 164 175 184 188 197 201
235 228 224 222 221 219 220 219 219 218 216 217 216 216 216 220 228 230 230 229 231 233 232 230 228 228 227 218 223 244 229 222 232 205 68 83 148 180 184 182 190 183 182 189 182 185 182 185 182 165 199 189 184 185 173 199 209 215 223 185 167 205 205 192 213 195 191 234 191 253 268 266 135 76 262 250 261 267 205 209 210 189 206 208 204 199 201 208
236 230 226 224 220 217 219 217 217 218 215 217 216 215 215 216 223 227 227 228 229 230 231 229 228 226 224 219 223 237 236 220 225 216 89 107 141 164 176 182 189 189 191 191 191 192 187 189 176 155 200 172 187 180 175 205 199 193 209 195 198 212 179 179 228 197 192 221 196 248 268 273 126 208 248 235 258 298 186 222 214 228 237 226 215 209 208 215
235 231 227 223 219 216 217 215 215 216 214 215 215 214 214 212 216 222 225 225 227 229 229 228 227 224 221 218 226 227 179 215 222 218 219 182 160 161 176 189 188 190 195 194 198 196 198 191 153 136 195 165 170 165 188 203 136 150 168 194 214 222 223 215 226 205 211 221 187 238 274 269 153 212 242 229 237 163 222 230 211 229 244 239 229 216 212 223
235 232 229 222 217 215 215 214 212 213 213 212 214 214 213 210 211 217 223 224 226 227 226 227 223 221 221 227 237 225 195 187 221 217 205 181 184 175 185 196 190 191 194 194 199 198 207 193 163 175 179 153 155 156 201 182 146 154 165 229 215 204 230 220 216 202 207 215 159 177 276 255 216 214 224 224 233 234 240 238 218 226 240 245 241 228 223 227
234 231 229 223 218 215 214 212 210 211 212 210 211 212 212 210 207 211 220 223 224 226 223 223 221 214 216 235 246 231 226 238 271 227 193 188 201 183 191 199 191 193 195 196 195 194 207 200 189 199 172 169 164 123 147 142 141 174 189 246 225 229 235 208 198 181 201 208 141 173 264 254 226 216 208 204 216 219 239 241 227 224 232 240 240 237 237 229
233 229 227 223 218 214 213 209 206 209 210 209 209 209 210 209 205 206 215 221 223 225 221 219 220 212 216 238 244 229 235 242 252 249 193 192 198 172 180 189 187 193 195 198 193 194 206 199 196 201 89 223 157 126 136 128 177 192 180 232 229 243 232 181 180 175 198 203 141 189 256 260 244 221 191 183 204 221 242 245 237 230 227 233 235 236 241 232
232 229 225 222 215 212 212 207 203 205 207 207 206 206 208 206 203 202 210 220 222 223 216 214 213 202 231 252 241 235 238 234 233 236 217 191 183 163 169 175 179 189 190 191 194 197 200 188 187 176 149 239 146 164 181 153 194 197 194 219 217 230 222 170 176 184 204 203 159 199 248 257 255 256 215 181 199 218 241 246 242 237 232 231 233 233 239 238
231 227 224 223 216 210 211 208 203 201 202 204 203 203 205 203 198 196 207 217 216 213 205 204 205 203 249 255 211 223 221 206 214 222 219 196 186 176 164 165 168 176 181 181 186 186 183 183 198 179 150 168 179 188 199 199 209 202 213 228 208 212 225 203 170 192 213 207 180 211 242 252 248 259 243 155 203 220 242 250 247 242 238 236 237 235 237 245
230 226 224 221 215 209 208 209 203 197 198 200 198 197 199 199 191 190 204 212 210 205 195 189 188 199 254 262 201 211 195 187 202 203 202 197 194 179 157 153 160 165 167 158 164 161 157 176 181 184 182 192 195 188 200 215 217 204 213 232 216 205 220 208 161 189 212 222 212 215 236 252 251 250 238 159 192 225 242 251 253 249 246 243 244 245 244 248
226 223 221 217 213 207 205 206 201 195 195 194 192 190 192 190 181 184 188 188 188 183 191 195 169 187 244 238 208 199 167 175 195 196 190 190 191 175 159 153 153 154 157 153 172 178 167 175 188 198 196 198 198 192 206 215 210 207 209 221 223 215 219 218 201 169 188 214 229 220 231 247 250 256 256 227 168 220 242 247 254 253 252 252 250 251 246 244
225 221 218 213 209 204 202 203 200 195 191 187 183 177 178 175 167 176 173 168 167 159 188 195 184 182 254 218 182 146 158 175 188 189 179 181 182 171 161 156 151 151 159 162 185 193 177 168 190 203 200 200 201 202 211 206 193 209 214 218 224 228 227 224 221 173 184 215 230 229 239 248 246 251 258 252 211 223 241 245 252 254 253 254 251 250 244 240
223 219 215 212 207 201 200 202 199 192 186 177 166 160 163 164 158 185 182 188 199 202 222 169 198 219 16 50 149 136 152 170 180 175 171 177 173 166 156 149 156 157 166 166 174 185 183 188 198 206 204 200 201 205 212 211 197 208 218 225 225 230 231 220 213 172 181 238 244 241 249 254 253 253 256 260 251 238 239 239 241 246 247 247 246 246 244 240
218 215 213 211 205 200 197 197 194 190 185 172 160 156 171 172 170 189 177 200 219 224 268 101 206 235 350 15 151 142 141 167 190 172 169 174 169 170 164 152 168 172 174 164 143 161 187 206 212 210 205 202 203 206 211 216 214 214 222 227 221 227 233 220 210 188 171 238 256 257 259 258 256 256 255 256 257 250 244 240 237 239 243 244 245 246 247 245
217 215 212 208 203 200 197 194 191 187 180 170 167 175 192 179 166 141 159 180 223 226 251 253 259 250 191 289 205 186 167 170 189 179 169 171 170 185 180 161 179 181 171 156 132 163 194 217 216 204 202 208 210 208 211 218 220 221 223 224 224 222 226 223 211 205 189 223 260 261 261 264 259 254 252 248 250 252 247 243 242 241 243 244 244 245 246 247
217 214 210 208 202 197 195 193 190 182 174 171 179 189 187 180 165 140 155 155 209 206 232 233 241 236 207 228 202 219 211 174 184 186 174 172 174 189 186 175 187 184 171 164 164 177 196 222 214 195 199 209 212 210 212 219 221 222 218 220 229 209 206 230 214 204 203 216 268 277 266 267 261 255 252 244 245 253 251 245 245 244 244 248 248 248 248 247
216 212 209 207 201 196 191 188 182 176 176 179 185 188 178 175 163 150 152 115 208 186 216 221 236 233 211 206 171 178 216 190 195 186 175 180 181 181 192 192 191 193 182 175 175 185 208 216 189 187 203 207 212 212 210 217 222 224 220 220 225 204 210 236 208 180 207 229 255 283 278 268 253 248 250 243 237 244 247 243 243 241 240 246 249 249 250 251
213 212 208 204 202 193 185 181 174 173 178 183 186 183 177 173 164 157 148 115 220 163 193 202 226 228 203 174 159 163 202 231 243 192 176 185 183 167 188 201 197 203 193 180 178 194 217 187 165 187 200 200 211 214 209 214 220 225 222 221 223 211 214 225 196 170 240 249 218 218 263 274 241 236 242 242 231 232 237 238 239 240 236 240 245 246 248 250
208 210 206 202 201 188 181 179 170 170 174 185 187 177 173 171 166 168 153 129 231 178 162 169 170 195 191 171 145 136 201 224 240 184 179 189 185 167 186 185 206 212 195 185 186 200 204 177 175 191 191 195 208 212 208 208 218 231 220 212 219 220 220 216 198 200 245 264 193 187 245 277 265 245 242 244 240 231 230 231 234 238 236 237 240 242 243 245
206 208 204 202 196 183 178 162 160 166 173 185 181 171 167 167 167 178 167 243 241 159 148 171 170 179 181 163 147 154 213 178 126 170 190 194 191 194 214 192 182 209 188 181 208 200 177 179 186 191 189 195 205 208 204 201 215 233 179 181 208 221 224 220 213 219 244 284 247 200 230 269 271 260 247 247 251 244 236 233 230 227 231 235 238 239 238 240
207 205 202 202 193 183 177 156 157 168 176 171 169 164 163 163 165 173 164 200 218 139 143 178 163 150 156 150 155 178 248 125 154 184 180 191 192 179 227 208 196 195 184 188 209 192 170 183 188 188 190 196 203 205 192 191 210 213 131 169 206 218 222 222 222 229 249 287 265 229 215 255 265 256 240 239 244 246 243 241 234 222 223 230 236 240 239 238
207 203 203 201 191 185 180 165 164 169 163 161 160 159 156 157 162 160 181 202 192 142 166 169 153 137 146 152 167 191 210 125 197 168 139 178 209 168 228 216 206 199 191 204 216 186 147 197 195 191 196 198 200 193 175 185 202 174 139 172 196 211 219 221 219 228 246 259 258 243 213 237 267 257 231 230 235 242 242 241 237 228 225 226 230 236 237 238
206 204 202 197 187 180 171 163 166 163 159 160 156 152 148 148 156 158 190 204 125 135 162 166 172 158 157 161 177 193 194 174 73 121 146 174 185 196 264 209 193 202 192 214 225 226 312 346 175 198 207 189 181 169 174 187 177 123 128 157 170 191 205 211 214 221 240 245 250 243 215 224 263 252 216 227 236 241 230 227 233 231 228 227 227 230 234 237
206 205 201 195 183 169 159 155 158 156 156 157 152 147 140 134 167 177 188 184 58 139 150 162 175 160 160 166 177 191 193 183 141 155 169 178 175 182 198 155 150 181 185 210 225 229 232 187 135 197 190 141 146 159 179 181 151 132 135 148 159 169 168 188 195 198 222 237 249 243 218 222 244 233 170 241 81 188 210 214 221 225 227 228 228 230 235 239
205 205 200 194 182 169 165 160 155 154 155 153 148 144 138 138 179 193 181 120 79 181 160 167 176 168 168 173 180 186 188 187 174 172 176 187 191 185 197 195 171 185 203 202 199 213 225 212 186 182 161 150 156 158 153 153 161 173 168 159 171 182 185 199 197 191 215 234 263 222 206 224 245 247 241 249 200 144 205 219 222 228 233 233 230 232 235 237
202 202 196 190 182 171 166 159 156 156 154 149 143 140 153 160 181 191 176 148 162 179 161 171 178 174 172 177 186 184 184 188 179 181 184 187 197 203 212 210 189 201 211 191 197 198 210 214 198 173 159 167 168 162 163 170 180 186 177 179 190 192 199 211 211 203 221 242 269 71 168 241 261 259 234 230 233 218 202 213 226 238 248 252 241 233 235 236
200 196 190 187 181 169 160 156 156 156 153 145 138 152 159 169 177 183 192 183 183 155 159 168 170 172 177 185 188 176 178 188 178 182 186 176 193 208 215 213 200 205 143 169 200 197 209 223 189 177 171 173 178 181 178 167 181 191 185 193 198 192 206 214 211 209 220 238 217 118 128 239 246 270 179 218 240 227 204 204 231 274 263 256 250 235 236 241
195 189 185 182 173 162 156 154 154 155 152 144 150 160 164 175 173 184 197 187 185 171 158 164 164 167 181 194 191 178 180 190 176 181 186 179 196 204 206 212 203 201 188 188 195 188 220 247 182 182 180 172 184 191 172 154 180 198 189 203 210 204 214 228 214 202 204 230 205 176 224 245 241 277 229 165 35 225 215 211 231 250 249 244 250 249 248 250
185 183 184 173 158 156 156 155 154 154 154 148 158 170 182 182 172 179 174 141 148 157 148 160 167 168 181 190 190 184 187 184 174 180 190 189 204 206 198 206 201 203 205 202 196 168 213 241 169 180 187 181 190 188 169 165 178 185 194 208 214 215 222 244 271 169 184 230 225 198 239 263 273 276 252 229 234 233 226 223 222 238 253 257 261 260 257 256
177 178 177 159 153 154 156 157 155 155 159 159 166 177 184 182 161 153 150 126 140 153 147 160 171 172 179 177 184 184 175 166 177 184 189 186 204 205 198 200 193 200 208 214 243 175 205 260 160 174 192 195 195 188 182 190 184 168 198 199 184 303 292 264 249 192 183 230 228 207 230 243 244 259 242 213 224 224 215 211 210 234 257 262 256 250 249 250
173 175 164 153 155 154 156 158 156 155 159 169 179 181 164 171 165 149 151 141 142 153 158 167 167 174 181 178 184 181 171 174 181 184 185 183 199 192 189 198 194 197 204 208 226 302 181 265 193 182 197 195 190 190 195 204 200 184 196 181 151 192 212 204 220 205 189 222 238 227 232 234 224 234 217 170 204 216 214 204 194 223 236 243 248 247 245 246
169 172 163 157 155 155 159 159 155 154 158 172 189 189 169 175 155 128 156 151 147 159 170 176 166 178 187 187 184 175 175 185 180 181 192 187 194 187 182 186 190 194 195 194 205 185 143 237 231 195 195 176 177 195 198 204 210 274 152 171 168 215 209 202 205 203 198 211 236 240 237 232 229 233 222 162 155 185 203 201 206 224 227 226 234 241 243 247
164 160 157 156 154 156 159 156 150 161 168 181 190 166 162 171 135 124 158 148 146 171 181 182 169 176 188 193 185 170 180 193 183 185 197 179 187 197 183 181 179 183 187 189 194 186 163 225 235 194 156 162 189 200 198 201 202 203 188 179 186 199 216 221 204 207 218 217 228 248 248 242 241 227 206 197 191 183 186 194 205 218 223 226 234 253 276 288
145 89 154 153 152 152 151 146 148 165 169 190 180 133 153 160 145 152 131 88 121 358 208 177 169 172 179 185 182 166 177 195 190 191 195 184 197 209 188 189 181 166 178 191 197 197 191 207 224 220 174 191 224 173 174 195 199 210 208 194 193 191 181 197 204 200 215 227 220 240 256 254 258 217 198 203 212 199 196 210 214 219 244 288 327 338 333 326
136 174 150 149 149 147 142 134 152 162 180 183 155 121 142 146 153 163 146 86 111 54 15 173 171 169 167 177 181 168 172 185 189 193 199 201 206 207 191 190 174 155 165 189 192 185 175 196 224 236 228 211 231 91 99 62 10 258 243 220 210 203 189 195 201 189 194 219 222 240 263 266 34 29 31 66 66 54 39 309 328 13 14 17 7 350 342 329
137 147 142 147 150 149 144 146 153 164 195 155 127 103 103 127 147 159 166 173 154 128 134 158 178 180 179 175 161 167 181 187 189 193 199 208 213 208 174 172 163 156 162 181 182 168 122 177 213 240 247 242 253 138 93 47 27 284 256 236 226 218 211 216 217 193 188 198 202 229 250 246 98 52 64 75 78 70 56 44 46 40 24 13 353 341 339 324
131 85 126 149 154 157 154 154 164 176 179 152 145 148 97 100 146 161 177 179 161 147 144 135 186 186 170 150 150 170 189 194 195 195 198 213 220 99 151 168 167 168 177 183 175 172 181 185 197 223 232 231 232 225 213 153 139 235 240 238 241 231 224 229 245 286 213 196 192 208 237 237 186 93 95 91 86 80 72 67 63 52 23 354 340 331 320 311
127 82 26 145 156 163 175 166 168 172 167 161 163 162 148 110 92 168 171 161 110 145 151 144 168 126 94 150 162 174 189 203 205 196 204 219 210 74 165 176 174 178 189 179 164 171 194 189 195 215 221 220 219 223 228 200 174 195 202 216 240 237 228 225 218 221 218 193 193 207 225 224 152 111 108 102 87 70 63 71 67 47 348 324 319 314 315 314
134 108 83 102 137 176 246 353 155 165 165 162 164 168 165 154 82 40 156 160 147 136 126 85 146 137 122 171 179 178 189 205 210 183 197 201 181 74 219 193 188 184 166 154 159 167 199 208 207 216 225 230 229 227 254 151 145 178 192 195 214 227 237 242 225 218 207 180 203 218 218 222 202 147 133 113 69 21 351 353 357 336 322 319 310 307 311 306
120 115 144 129 96 169 182 258 170 170 170 166 161 167 167 157 138 103 106 177 159 144 114 57 154 174 165 170 186 190 187 194 187 184 198 196 156 75 322 234 212 185 150 154 173 168 184 219 215 219 229 239 245 239 170 147 159 182 192 193 201 211 226 242 241 244 225 205 216 213 200 226 227 180 133 10 4 349 326 324 332 329 317 312 307 307 306 299
94 101 139 89 141 173 183 193 179 168 164 164 153 154 163 161 162 167 137 68 130 166 182 177 191 195 180 170 178 185 184 193 205 198 197 185 154 136 123 249 239 199 160 168 190 171 181 224 215 218 231 241 248 241 192 181 198 191 193 195 196 198 207 221 228 260 264 235 237 58 190 237 237 210 1 322 323 316 306 307 314 310 303 306 314 321 320 319
97 98 81 359 6 161 145 149 162 162 163 165 160 161 170 173 175 170 124 113 165 195 202 203 201 199 191 178 178 186 185 187 205 208 199 180 169 158 153 194 241 223 189 183 191 180 204 225 210 213 233 241 245 238 202 199 214 209 208 204 196 195 200 210 212 187 192 240 267 316 289 271 268 279 297 295 292 290 290 287 275 267 280 299 312 320 319 316
118 133 137 72 88 126 112 122 152 158 161 168 174 175 178 181 178 165 131 158 174 178 198 211 198 190 196 193 195 206 199 188 194 200 189 178 177 176 183 193 192 196 198 196 195 196 214 221 187 184 232 243 236 225 208 202 208 215 218 208 196 195 197 208 214 194 184 221 241 251 277 282 278 278 282 281 275 250 251 253 251 260 270 273 279 289 296 301
99 87 106 110 96 121 133 137 151 157 167 182 183 173 182 188 178 162 153 191 184 173 190 202 189 180 193 200 208 217 211 202 205 200 186 183 189 188 190 192 163 164 192 203 192 191 208 220 146 167 226 241 218 210 211 197 215 233 224 198 187 192 196 205 208 193 187 208 227 236 253 267 270 278 284 277 248 189 221 241 243 257 260 252 258 271 281 292
88 67 68 90 75 113 143 140 151 167 175 184 177 165 178 182 170 166 173 199 191 172 194 196 187 182 192 205 214 220 215 207 223 231 190 179 180 179 176 173 167 167 177 188 187 186 194 206 171 177 218 239 203 192 189 168 215 239 214 198 202 207 215 220 216 212 210 208 220 234 236 245 257 268 277 271 228 183 215 232 231 246 251 252 258 258 267 285